Location: Home
(42.5358°N, 72.7383°W)
Time: 00:21:54
(UTC-05:00)

Vanguard 1 - Pass Details

Date: 30 November 2021
Orbit: 652 x 3830 km, 34.2° (Epoch: 21 January)

Event Time Altitude Azimuth Distance (km) Brightness Sun altitude
Rises 05:41:33 0° 279° (W) 7,716 - -14.2°
Reaches altitude 10° 05:47:33 10° 274° (W) 6,381 - -13.1°
Exits shadow 05:48:46 12° 273° (W) 6,103 13.5 -12.9°
Maximum altitude 06:04:30 44° 211° (SSW) 2,981 12.4 -10.1°
Drops below altitude 10° 06:14:22 10° 143° (SE) 3,807 14.1 -8.5°
Sets 06:17:00 0° 136° (SE) 4,465 14.8 -8.0°
